Clarksville, TN

7:59 AM CST on November 20, 2019 (GMT -0600)
Outlaw

Weather History for KCKV - October, 2019

Change the Weather History Date:

Monday, October 21, 2019

  Actual Average Record
Temperature  
Mean Temperature 66 °F 57 °F  
Max Temperature 71 °F 70 °F 90 °F (1953)
Min Temperature 60 °F 45 °F 26 °F (1982)
Degree Days  
Heating Degree Days 0    
Month to date heating degree days 102  
Since 1 July heating degree days 102  
Cooling Degree Days 0    
Month to date cooling degree days 68  
Year to date cooling degree days 1788  
Growing Degree Days 16 (Base 50)    
Moisture  
Dew Point 60 °F    
Average Humidity 84    
Maximum Humidity 93    
Minimum Humidity 76    
Precipitation  
Precipitation 0.09 in 0.13 in 0.94 in (1983)
Month to date precipitation 4.87 2.74  
Year to date precipitation 45.28 39.40  
Sea Level Pressure  
Sea Level Pressure 29.78 in    
Wind  
Wind Speed 10 mph ()    
Max Wind Speed 22 mph    
Max Gust Speed 33 mph    
Visibility 10.0 miles    
Events Rain    
T = Trace of Precipitation, MM = Missing Value Source: Averaged Metar Reports

Daily Weather History Graph

Daily Weather History Graph

Search for Another Location

Airport or City:

Astronomy

Oct. 21, 2019 Rise Set
Actual Time 7:02 AM CDT 6:05 PM CDT
Civil Twilight 6:36 AM CDT 6:31 PM CDT
Nautical Twilight 6:05 AM CDT 7:02 PM CDT
Astronomical Twilight 5:35 AM CDT 7:31 PM CDT
Moon No Moon Rise 2:14 PM CDT (10/21)
Length of Visible Light 11h 55m
Length of Day
11h 03m
Waning Gibbous, 48% of the Moon is Illuminated
Oct 21
Waning Gibbous
Oct 27
New
Nov 4
First Quarter
Nov 12
Full
Nov 19
Last Quarter

Hourly Weather History & Observations

Time (CDT) Temp. Dew Point Humidity Pressure Visibility Wind Dir Wind Speed Gust Speed Precip Events Conditions
12:52 AM 61.0 °F 55.9 °F 83% 29.84 in 10.0 mi SE 10.4 mph - N/A   Mostly Cloudy
1:52 AM 62.1 °F 57.0 °F 84% 29.81 in 10.0 mi SSE 6.9 mph - N/A   Clear
2:52 AM 63.0 °F 57.0 °F 81% 29.79 in 10.0 mi SSE 9.2 mph - N/A   Overcast
3:52 AM 63.0 °F 57.0 °F 81% 29.77 in 10.0 mi SSE 6.9 mph - 0.00 in Rain Light Rain
4:52 AM 64.0 °F 57.9 °F 80% 29.75 in 10.0 mi SSE 9.2 mph - 0.00 in   Overcast
5:52 AM 64.9 °F 59.0 °F 81% 29.74 in 10.0 mi SSE 11.5 mph 19.6 mph N/A   Overcast
6:52 AM 64.9 °F 60.1 °F 84% 29.73 in 10.0 mi SSE 10.4 mph - N/A   Mostly Cloudy
7:52 AM 66.9 °F 61.0 °F 81% 29.73 in 10.0 mi SSE 9.2 mph - N/A   Clear
8:52 AM 68.0 °F 62.1 °F 81% 29.77 in 10.0 mi South 16.1 mph 21.9 mph 0.00 in   Mostly Cloudy
9:52 AM 68.0 °F 63.0 °F 84% 29.78 in 10.0 mi South 19.6 mph 26.5 mph 0.08 in   Overcast
10:15 AM 69.1 °F 64.0 °F 84% 29.78 in 10.0 mi South 18.4 mph 27.6 mph N/A   Mostly Cloudy
10:52 AM 69.1 °F 63.0 °F 81% 29.76 in 10.0 mi South 17.3 mph 26.5 mph N/A   Mostly Cloudy
11:52 AM 70.0 °F 62.1 °F 76% 29.79 in 10.0 mi SSW 15.0 mph - N/A   Overcast
12:52 PM 68.0 °F 63.0 °F 84% 29.78 in 10.0 mi South 15.0 mph - 0.00 in   Overcast
1:52 PM 66.9 °F 63.0 °F 87% 29.77 in 10.0 mi South 16.1 mph - 0.01 in   Overcast
2:52 PM 66.9 °F 60.1 °F 79% 29.71 in 10.0 mi South 11.5 mph 19.6 mph 0.00 in   Overcast
3:52 PM 64.9 °F 60.1 °F 84% 29.74 in 10.0 mi SSW 13.8 mph - 0.00 in Rain Light Rain
4:52 PM 64.9 °F 60.1 °F 84% 29.75 in 10.0 mi South 11.5 mph 23.0 mph 0.00 in   Overcast
5:05 PM 64.9 °F 59.0 °F 81% 29.77 in 10.0 mi SSW 15.0 mph - N/A   Overcast
5:52 PM 64.0 °F 59.0 °F 84% 29.77 in 10.0 mi SSW 13.8 mph - N/A   Mostly Cloudy
6:00 PM 64.0 °F 59.0 °F 84% 29.78 in 10.0 mi SSW 12.7 mph - N/A   Scattered Clouds
6:34 PM 64.0 °F 59.0 °F 84% 29.78 in 10.0 mi SSW 10.4 mph - N/A   Mostly Cloudy
6:52 PM 64.0 °F 59.0 °F 84% 29.78 in 10.0 mi SSW 12.7 mph - N/A   Mostly Cloudy
7:11 PM 63.0 °F 59.0 °F 87% 29.80 in 10.0 mi SSW 15.0 mph - N/A   Mostly Cloudy
7:52 PM 63.0 °F 59.0 °F 87% 29.80 in 10.0 mi SSW 9.2 mph - N/A   Partly Cloudy
8:52 PM 62.1 °F 59.0 °F 90% 29.82 in 10.0 mi SSW 11.5 mph - N/A   Scattered Clouds
9:52 PM 62.1 °F 57.9 °F 86% 29.84 in 10.0 mi SSW 8.1 mph - N/A   Partly Cloudy
10:52 PM 60.1 °F 57.9 °F 93% 29.86 in 10.0 mi SW 8.1 mph - N/A   Clear
11:52 PM 60.1 °F 57.9 °F 93% 29.85 in 10.0 mi SW 6.9 mph - N/A   Partly Cloudy